PGT2DM LTFJ-LTFD

Flight info

Callsign PGT2DM
Flight time 0h 36m
Altitude 28000
Route IVGUS1J IVGUS Y227 RAUMA G80 KONEN KONEN1T
Aircraft A320/M-SDE3FGHIRWY/LB1

Departure

Time 2026-04-23 18:00
Airport Istanbul Sabiha Gökçen International Airport (LTFJ)

Arrival

Time 2026-04-23 18:36
Airport Balıkesir Koca Seyit Airport (LTFD)
Time Latitude Longitude Altitude Speed Heading
2026-04-23 17:23 40.90748 29.31939 311 ft 0 kts 334°
2026-04-23 17:51 40.90734 29.31948 311 ft 4 kts 334°
2026-04-23 17:52 40.90710 29.31964 311 ft 4 kts 334°
2026-04-23 17:52 40.90665 29.31981 311 ft 4 kts 12°
2026-04-23 17:52 40.90645 29.31966 311 ft 2 kts 63°
2026-04-23 17:53 40.90644 29.31964 311 ft 0 kts 64°
2026-04-23 17:55 40.90646 29.31968 311 ft 3 kts 64°
2026-04-23 17:55 40.90662 29.32014 311 ft 5 kts 64°
2026-04-23 17:56 40.90683 29.32070 311 ft 9 kts 64°
2026-04-23 17:56 40.90734 29.32210 311 ft 5 kts 64°
2026-04-23 17:56 40.90739 29.32247 311 ft 3 kts 96°
2026-04-23 17:57 40.90716 29.32273 311 ft 8 kts 150°
2026-04-23 17:57 40.90655 29.32314 311 ft 10 kts 154°
2026-04-23 17:57 40.90564 29.32432 311 ft 13 kts 145°
2026-04-23 17:58 40.90525 29.32457 311 ft 0 kts 155°
2026-04-23 17:58 40.90505 29.32469 311 ft 6 kts 155°
2026-04-23 17:58 40.90478 29.32483 312 ft 6 kts 166°
2026-04-23 17:59 40.90412 29.32434 312 ft 11 kts 239°
2026-04-23 17:59 40.90384 29.32357 312 ft 15 kts 244°
2026-04-23 17:59 40.90238 29.31964 313 ft 84 kts 244°
2026-04-23 17:59 40.89893 29.31030 311 ft 142 kts 244°
2026-04-23 18:00 40.89404 29.29709 656 ft 163 kts 244°
2026-04-23 18:00 40.88922 29.28394 1417 ft 159 kts 244°
2026-04-23 18:00 40.88458 29.27074 2100 ft 160 kts 245°
2026-04-23 18:00 40.87957 29.25655 2453 ft 182 kts 244°
2026-04-23 18:01 40.87382 29.24055 2865 ft 202 kts 244°
2026-04-23 18:01 40.86747 29.22296 3321 ft 222 kts 244°
2026-04-23 18:01 40.86046 29.20354 3745 ft 246 kts 244°
2026-04-23 18:01 40.85285 29.18257 3991 ft 256 kts 244°
2026-04-23 18:02 40.84773 29.16847 4011 ft 257 kts 244°
2026-04-23 18:02 40.84004 29.14720 4015 ft 256 kts 244°
2026-04-23 18:02 40.83218 29.12554 4164 ft 271 kts 244°
2026-04-23 18:02 40.82412 29.10346 5079 ft 272 kts 244°
2026-04-23 18:03 40.81588 29.08086 5985 ft 275 kts 244°
2026-04-23 18:03 40.80475 29.05035 6815 ft 282 kts 244°
2026-04-23 18:03 40.79898 29.03461 6939 ft 282 kts 244°
2026-04-23 18:03 40.79045 29.01135 7007 ft 282 kts 244°
2026-04-23 18:04 40.78192 28.98802 7009 ft 281 kts 244°
2026-04-23 18:04 40.77351 28.96510 7009 ft 281 kts 244°
2026-04-23 18:04 40.76603 28.94176 7009 ft 281 kts 254°
2026-04-23 18:04 40.76322 28.91619 7147 ft 287 kts 270°
2026-04-23 18:05 40.76427 28.88986 8012 ft 287 kts 272°
2026-04-23 18:05 40.76517 28.86340 8827 ft 290 kts 272°
2026-04-23 18:05 40.76591 28.83659 9575 ft 294 kts 271°
2026-04-23 18:05 40.76662 28.80945 10259 ft 300 kts 271°
2026-04-23 18:06 40.76738 28.78093 10453 ft 323 kts 271°
2026-04-23 18:06 40.76823 28.75036 10668 ft 342 kts 271°
2026-04-23 18:06 40.76911 28.71870 11186 ft 349 kts 272°
2026-04-23 18:06 40.77004 28.68649 11774 ft 353 kts 272°
2026-04-23 18:07 40.77144 28.65400 12339 ft 357 kts 277°
2026-04-23 18:07 40.77717 28.62198 12876 ft 361 kts 289°
2026-04-23 18:07 40.78810 28.59203 13392 ft 365 kts 301°
2026-04-23 18:07 40.80159 28.56399 13885 ft 368 kts 302°
2026-04-23 18:08 40.81532 28.53530 14368 ft 371 kts 301°
2026-04-23 18:08 40.82648 28.50454 14817 ft 374 kts 288°
2026-04-23 18:08 40.83241 28.47105 15260 ft 376 kts 276°
2026-04-23 18:08 40.83275 28.43645 15690 ft 378 kts 264°
2026-04-23 18:09 40.82990 28.40178 16108 ft 381 kts 263°
2026-04-23 18:09 40.82700 28.36685 16512 ft 384 kts 263°
2026-04-23 18:09 40.82410 28.33173 16895 ft 386 kts 263°
2026-04-23 18:09 40.82120 28.29637 17262 ft 389 kts 263°
2026-04-23 18:10 40.81828 28.26070 17615 ft 391 kts 263°
2026-04-23 18:10 40.81537 28.22490 17952 ft 394 kts 263°
2026-04-23 18:10 40.81243 28.18886 18276 ft 396 kts 263°
2026-04-23 18:10 40.80947 28.15302 18583 ft 398 kts 263°
2026-04-23 18:11 40.80644 28.11660 18883 ft 400 kts 263°
2026-04-23 18:11 40.80337 28.07992 19170 ft 402 kts 263°
2026-04-23 18:11 40.80028 28.04317 19447 ft 404 kts 263°
2026-04-23 18:11 40.79718 28.00670 19705 ft 406 kts 263°
2026-04-23 18:12 40.79405 27.96954 19956 ft 408 kts 263°
2026-04-23 18:12 40.79095 27.93223 20197 ft 410 kts 263°
2026-04-23 18:12 40.78782 27.89473 20422 ft 412 kts 263°
2026-04-23 18:12 40.78463 27.85706 20637 ft 413 kts 263°
2026-04-23 18:13 40.78142 27.81932 20841 ft 415 kts 263°
2026-04-23 18:13 40.77769 27.78155 21027 ft 416 kts 258°
2026-04-23 18:13 40.76868 27.74529 21206 ft 417 kts 244°
2026-04-23 18:13 40.75354 27.71263 21382 ft 418 kts 231°
2026-04-23 18:14 40.73318 27.68533 21549 ft 419 kts 218°
2026-04-23 18:14 40.70885 27.66502 21712 ft 421 kts 206°
2026-04-23 18:14 40.68234 27.64845 21869 ft 422 kts 205°
2026-04-23 18:14 40.65574 27.63187 22027 ft 423 kts 205°
2026-04-23 18:15 40.62910 27.61528 22179 ft 424 kts 205°
2026-04-23 18:15 40.60237 27.59864 22327 ft 426 kts 205°
2026-04-23 18:15 40.57555 27.58195 22468 ft 427 kts 205°
2026-04-23 18:15 40.54788 27.56784 22595 ft 428 kts 200°
2026-04-23 18:16 40.51982 27.55481 22723 ft 429 kts 199°
2026-04-23 18:16 40.49162 27.54182 22849 ft 430 kts 199°
2026-04-23 18:16 40.46336 27.52886 22975 ft 431 kts 199°
2026-04-23 18:17 40.40781 27.50335 22695 ft 411 kts 199°
2026-04-23 18:17 40.38098 27.49101 22445 ft 405 kts 199°
2026-04-23 18:17 40.35451 27.47882 22195 ft 402 kts 199°
2026-04-23 18:17 40.32821 27.46670 21945 ft 400 kts 199°
2026-04-23 18:18 40.30236 27.45479 21697 ft 398 kts 199°
2026-04-23 18:18 40.27630 27.44281 21447 ft 396 kts 199°
2026-04-23 18:18 40.25038 27.43091 21197 ft 394 kts 199°
2026-04-23 18:18 40.22459 27.41906 20947 ft 392 kts 199°
2026-04-23 18:19 40.19886 27.40725 20696 ft 390 kts 199°
2026-04-23 18:19 40.17326 27.39553 20446 ft 389 kts 199°
2026-04-23 18:19 40.14780 27.38391 20195 ft 387 kts 199°
2026-04-23 18:19 40.12242 27.37238 19945 ft 385 kts 199°
2026-04-23 18:20 40.09719 27.36086 19694 ft 383 kts 199°
2026-04-23 18:20 40.07207 27.34938 19444 ft 381 kts 199°
2026-04-23 18:20 40.04703 27.33794 19193 ft 380 kts 199°
2026-04-23 18:20 40.02215 27.32656 18943 ft 378 kts 199°
2026-04-23 18:21 39.99737 27.31526 18692 ft 376 kts 199°
2026-04-23 18:21 39.97210 27.30692 18443 ft 375 kts 188°
2026-04-23 18:21 39.94634 27.30219 18141 ft 371 kts 188°
2026-04-23 18:21 39.92089 27.29750 17863 ft 370 kts 188°
2026-04-23 18:22 39.89538 27.29277 17612 ft 369 kts 188°
2026-04-23 18:22 39.87000 27.28807 17362 ft 368 kts 188°
2026-04-23 18:22 39.84520 27.28242 17113 ft 366 kts 196°
2026-04-23 18:22 39.82190 27.26982 16863 ft 363 kts 211°
2026-04-23 18:23 39.80793 27.25715 16694 ft 362 kts 220°
2026-04-23 18:23 39.77243 27.19667 14721 ft 364 kts 238°
2026-04-23 18:24 39.74720 27.14334 14049 ft 338 kts 238°
2026-04-23 18:24 39.73491 27.11739 13609 ft 337 kts 238°
2026-04-23 18:24 39.72256 27.09160 13165 ft 336 kts 237°
2026-04-23 18:25 39.69575 27.04210 12280 ft 333 kts 233°
2026-04-23 18:25 39.68183 27.01809 11831 ft 332 kts 233°
2026-04-23 18:25 39.66790 26.99420 11384 ft 331 kts 233°
2026-04-23 18:25 39.65409 26.97033 10932 ft 330 kts 233°
2026-04-23 18:26 39.64044 26.94653 10481 ft 328 kts 233°
2026-04-23 18:26 39.62698 26.92289 10193 ft 321 kts 233°
2026-04-23 18:26 39.61403 26.90006 9999 ft 305 kts 233°
2026-04-23 18:26 39.60185 26.87855 9542 ft 295 kts 233°
2026-04-23 18:27 39.58977 26.85728 9416 ft 293 kts 233°
2026-04-23 18:27 39.57767 26.83606 9185 ft 294 kts 233°
2026-04-23 18:27 39.56558 26.81483 8819 ft 292 kts 233°
2026-04-23 18:27 39.55357 26.79374 8433 ft 290 kts 233°
2026-04-23 18:28 39.54163 26.77283 8030 ft 288 kts 233°
2026-04-23 18:28 39.52972 26.75201 7616 ft 287 kts 233°
2026-04-23 18:28 39.51784 26.73123 7205 ft 286 kts 233°
2026-04-23 18:28 39.50603 26.71053 6604 ft 285 kts 233°
2026-04-23 18:29 39.49324 26.69130 5952 ft 280 kts 216°
2026-04-23 18:29 39.47578 26.68242 5310 ft 275 kts 183°
2026-04-23 18:29 39.45774 26.68787 4904 ft 262 kts 149°
2026-04-23 18:29 39.44345 26.70080 4773 ft 240 kts 144°
2026-04-23 18:30 39.43022 26.71330 4647 ft 230 kts 144°
2026-04-23 18:30 39.41789 26.72551 4438 ft 218 kts 135°
2026-04-23 18:30 39.41064 26.74215 4133 ft 213 kts 101°
2026-04-23 18:30 39.41180 26.76068 3921 ft 207 kts 67°
2026-04-23 18:31 39.41927 26.77594 3782 ft 194 kts 53°
2026-04-23 18:31 39.42695 26.78932 3612 ft 178 kts 53°
2026-04-23 18:31 39.43391 26.80150 3523 ft 159 kts 53°
2026-04-23 18:31 39.44033 26.81275 3401 ft 153 kts 53°
2026-04-23 18:32 39.44661 26.82377 3233 ft 152 kts 53°
2026-04-23 18:32 39.45277 26.83459 3049 ft 151 kts 53°
2026-04-23 18:32 39.45898 26.84552 2856 ft 150 kts 53°
2026-04-23 18:32 39.46515 26.85645 2667 ft 150 kts 54°
2026-04-23 18:33 39.47120 26.86744 2458 ft 149 kts 54°
2026-04-23 18:33 39.47747 26.87809 2250 ft 149 kts 51°
2026-04-23 18:33 39.48389 26.88856 2085 ft 148 kts 53°
2026-04-23 18:33 39.48980 26.89950 1889 ft 148 kts 55°
2026-04-23 18:34 39.49582 26.91030 1657 ft 147 kts 53°
2026-04-23 18:34 39.50194 26.92087 1468 ft 146 kts 53°
2026-04-23 18:34 39.50795 26.93151 1280 ft 146 kts 54°
2026-04-23 18:34 39.51380 26.94206 1103 ft 146 kts 54°
2026-04-23 18:35 39.51982 26.95259 899 ft 145 kts 53°
2026-04-23 18:35 39.52574 26.96320 674 ft 145 kts 53°
2026-04-23 18:35 39.53173 26.97363 499 ft 145 kts 53°
2026-04-23 18:35 39.53764 26.98417 316 ft 144 kts 53°
2026-04-23 18:36 39.54355 26.99458 132 ft 143 kts 54°
2026-04-23 18:36 39.54930 27.00469 51 ft 130 kts 53°
2026-04-23 18:36 39.55345 27.01205 54 ft 70 kts 53°
2026-04-23 18:36 39.55561 27.01587 53 ft 33 kts 54°
2026-04-23 18:37 39.55686 27.01807 51 ft 31 kts 54°
2026-04-23 18:37 39.55792 27.02031 54 ft 15 kts 55°
2026-04-23 18:37 39.55815 27.02029 54 ft 2 kts 264°
2026-04-23 18:37 39.55776 27.01956 54 ft 16 kts 232°
2026-04-23 18:38 39.55707 27.01828 51 ft 20 kts 234°
2026-04-23 18:38 39.55608 27.01649 52 ft 26 kts 234°
2026-04-23 18:38 39.55500 27.01459 53 ft 27 kts 233°
2026-04-23 18:38 39.55399 27.01280 55 ft 25 kts 234°
2026-04-23 18:39 39.55301 27.01104 53 ft 25 kts 233°
2026-04-23 18:39 39.55202 27.00947 49 ft 22 kts 209°
2026-04-23 18:39 39.55104 27.01002 48 ft 15 kts 145°
2026-04-23 18:39 39.55043 27.01059 49 ft 7 kts 144°
2026-04-23 18:40 39.55030 27.01071 50 ft 0 kts 144°
2026-04-23 18:40 39.55027 27.01074 50 ft 2 kts 144°
2026-04-23 18:40 39.54987 27.01108 51 ft 10 kts 151°
2026-04-23 18:40 39.54951 27.01136 51 ft 2 kts 145°
2026-04-23 18:41 39.54942 27.01144 51 ft 1 kts 144°
2026-04-23 18:41 39.54938 27.01148 51 ft 0 kts 143°
2026-04-23 18:41 39.54936 27.01150 51 ft 1 kts 143°
2026-04-23 18:41 39.54933 27.01153 51 ft 0 kts 143°
2026-04-23 18:42 39.54929 27.01156 51 ft 0 kts 143°
2026-04-23 18:42 39.54927 27.01158 51 ft 1 kts 143°
2026-04-23 18:42 39.54927 27.01159 51 ft 0 kts 143°